Regional Weather Roundup
Issued by NWS Green Bay, WI

Home | Current Version | Previous Version | Graphics & Text | Print | Product List | Glossary Off
Versions: 1 2 3 4 5 6 7 8 9 10 11 12 13 14 15 16 17 18 19 20 21 22 23 24 25 26 27 28 29 30 31 32 33 34 35 36 37 38 39 40 41 42 43 44 45 46 47 48 49 50

104
ASUS43 KGRB 090411
RWRGRB

NORTH-CENTRAL AND NORTHEAST WISCONSIN REGIONAL WEATHER ROUNDUP
NATIONAL WEATHER SERVICE GREEN BAY WI
1000 PM CST MON FEB 08 2016

WIZ005-009-010>012-018-019-090500-
NORTH CENTRAL WISCONSIN

CITY           SKY/WX    TMP DP  RH WIND       PRES   REMARKS
IRONWOOD       CLOUDY    12  10  92 NW13G18   29.79F WCI  -3
MANITOWISH WTR LGT SNOW  11   8  88 NW6       29.76S WCI   1
ARBOR VITAE    LGT SNOW  11   8  85 NW7       29.75F WCI   1
EAGLE RIVER    LGT SNOW  11   6  80 NW9       29.72F WCI  -1
LAND O LAKES   LGT SNOW  13   9  86 N8        29.73F WCI   1
RHINELANDER    CLOUDY    11   5  77 NW6       29.74F WCI   1
PHILLIPS       FLURRIES   9   4  80 NW10      29.80S WCI  -6
ANTIGO         LGT SNOW  12   8  83 NW13      29.73F WCI  -3
TOMAHAWK       LGT SNOW  10   5  81 NW8       29.77S WCI  -2
MERRILL        LGT SNOW  11   6  79 NW8       29.78S WCI   0
$$

WIZ013-073-090500-
NORTHEAST WISCONSIN

CITY           SKY/WX    TMP DP  RH WIND       PRES   REMARKS
IRON MOUNTAIN  MOCLDY    14   6  70 NW14      29.72S WCI  -1
MARINETTE      CLOUDY    18   9  68 N5        29.75R
OCONTO         CLEAR     18  15  88 N7        29.76S WCI   9
$$

WIZ017-030-035>037-045-090500-
CENTRAL WISCONSIN

CITY           SKY/WX    TMP DP  RH WIND       PRES   REMARKS
MEDFORD        CLOUDY    10   4  79 NW14      29.78S HAZE    WCI  -7
WAUSAU         LGT SNOW  14   7  73 NW13      29.77R WCI   0
MOSINEE        FLURRIES  12   9  85 NW15      29.79S WCI  -4
MARSHFIELD     LGT SNOW  12   4  70 NW17      29.79S WCI  -5
WISC RAPIDS    FLURRIES  14   7  73 NW12G20   29.82R WCI   0
STEVENS POINT  LGT SNOW  13   9  85 NW7       29.79S WCI   3
WAUPACA        LGT SNOW  20  15  80 NW13      29.78S WCI   7
SHAWANO        FLURRIES  20  12  69 N8        29.77S
CLINTONVILLE   LGT SNOW  19  14  79 NW13      29.78R WCI   7
WAUTOMA        LGT SNOW  16  11  80 NW12      29.79S WCI   3
$$

WIZ038-039-048-051-090500-
FOX VALLEY

CITY           SKY/WX    TMP DP  RH WIND       PRES   REMARKS
NWS GREEN BAY  FLURRIES  20  15  81 NW12      29.75S WCI   8
APPLETON       LGT SNOW  19  12  73 NW15      29.73R WCI   5
OSHKOSH        LGT SNOW  18  14  84 NW10      29.75R FOG     WCI   6
FOND DU LAC    FLURRIES  18  13  80 NW12      29.75S WCI   5
$$

WIZ022-050-052-090500-
EAST CENTRAL WISCONSIN

CITY           SKY/WX    TMP DP  RH WIND       PRES   REMARKS
EPHRAIM        CLOUDY    18  10  70 N17G24    29.72S WCI   2
STURGEON BAY   CLOUDY    18   9  68 N20G26    29.75S WCI   1
MANITOWOC      FLURRIES  20  15  81 N13       29.74S WCI   7
SHEBOYGAN      LGT SNOW  24  19  81 N13       29.72S
$$

LMZ563-521-522-541>543-090500-
LAKESHORE

STATION/POSITION TIME  TEMP    WIND        PRES    VSBY  WAVE
                       AIR SEA DIR/SP/G                  HT/PER
                 (UTC) (F)     (DEG/KT/KT) (MB)    (MI)  (FT/S)
SHEBOYGAN LKSHOR 0400   24     350/ 23/ 24 1007.5R
KEWAUNEE LKSHORE 0300   21     340/ 10/ 16 1006.4R
ALGOMA MARINA    0311          320/ 13/ 18   N/A
NORTHPORT PIER   0302   21     330/ 21     1007.1R
CHAMBERS ISLAND  0300   19     310/ 17/ 23 1007.5
MENOMINEE LKSHOR 0300   19     330/ 13     1006.5R
$$




USA.gov is the U.S. government's official web portal to all federal, state and local government web resources and services.